Springfield, CO

1:37 PM MDT on July 24, 2016 (GMT -0600)
Springfield

Weather History for KSPD - March, 2014

Change the Weather History Date:

Sunday, March 30, 2014

  Actual Average Record
Temperature  
Mean Temperature 64 °F -  
Max Temperature 77 °F 62 °F 80 °F (2012)
Min Temperature 51 °F 31 °F 24 °F (2009)
Degree Days  
Heating Degree Days 1 18  
Month to date heating degree days 696 668  
Since 1 July heating degree days 4693 4674  
Cooling Degree Days 0 0  
Month to date cooling degree days 0 0  
Year to date cooling degree days 0 0  
Growing Degree Days 14 (Base 50)    
Moisture  
Dew Point 20 °F    
Average Humidity 23    
Maximum Humidity 38    
Minimum Humidity 8    
Precipitation  
Precipitation 0.00 in 0.04 in 0.05 in (2001)
Month to date precipitation 0.37 1.08  
Year to date precipitation 0.70 1.89  
Sea Level Pressure  
Sea Level Pressure 29.65 in    
Wind  
Wind Speed 17 mph (SSW)    
Max Wind Speed 30 mph    
Max Gust Speed 40 mph    
T = Trace of Precipitation, MM = Missing Value Source: NWS Daily Summary

Daily Weather History Graph

Daily Weather History Graph

Search for Another Location

Airport or City:

Trip Planner

Search our weather history database for the weather conditions in past years. The results will help you decide how hot, cold, wet, or windy it might be!

Date:

Astronomy

Mar. 30, 2014 Rise Set
Actual Time 6:38 AM MDT 7:11 PM MDT
Civil Twilight 6:12 AM MDT 7:37 PM MDT
Nautical Twilight 5:41 AM MDT 8:08 PM MDT
Astronomical Twilight 5:10 AM MDT 8:40 PM MDT
Moon 6:26 AM MDT (3/30) 7:25 PM MDT (3/30)
Length of Visible Light 13h 24m
Length of Day
12h 32m
Waning Crescent, 0% of the Moon is Illuminated
Mar 30
Waning Crescent
Mar 30
New
Apr 7
First Quarter
Apr 15
Full
Apr 22
Last Quarter

Hourly Weather History & Observations

Time (MDT) Temp. Dew Point Humidity Pressure Visibility Wind Dir Wind Speed Gust Speed Precip Events Conditions
12:56 AM 55.9 °F 25.0 °F 30% 29.85 in - SW 21.9 mph 29.9 mph N/A   Unknown
1:56 AM 53.1 °F 25.0 °F 34% 29.84 in - SSW 16.1 mph - N/A   Unknown
2:56 AM 54.0 °F 26.1 °F 34% 29.80 in - SW 15.0 mph 24.2 mph N/A   Unknown
3:56 AM 54.0 °F 26.1 °F 34% 29.78 in - SW 18.4 mph 25.3 mph N/A   Unknown
4:56 AM 53.1 °F 26.1 °F 35% 29.77 in - SW 20.7 mph 28.8 mph N/A   Unknown
5:56 AM 52.0 °F 27.0 °F 38% 29.78 in - SW 21.9 mph 29.9 mph N/A   Unknown
6:56 AM 51.1 °F 27.0 °F 39% 29.79 in - SW 18.4 mph 25.3 mph N/A   Unknown
7:56 AM 52.0 °F 27.0 °F 38% 29.79 in - SW 17.3 mph 24.2 mph N/A   Unknown
8:56 AM 54.0 °F 26.1 °F 34% 29.76 in - SW 13.8 mph 21.9 mph N/A   Unknown
9:56 AM 61.0 °F 24.1 °F 24% 29.74 in - SW 18.4 mph 27.6 mph N/A   Unknown
10:56 AM 64.9 °F 21.9 °F 19% 29.72 in - SSW 15.0 mph 23.0 mph N/A   Unknown
11:56 AM 70.0 °F 21.0 °F 16% 29.68 in - SSW 16.1 mph 24.2 mph N/A   Unknown
12:56 PM 75.0 °F 14.0 °F 10% 29.62 in - SSW 19.6 mph 33.4 mph N/A   Unknown
1:56 PM 75.0 °F 12.0 °F 9% 29.59 in - SSW 23.0 mph 33.4 mph N/A   Unknown
2:56 PM 73.9 °F 12.0 °F 9% 29.56 in - SSW 24.2 mph 36.8 mph N/A   Unknown
3:56 PM 77.0 °F 12.9 °F 9% 29.52 in - SW 23.0 mph 33.4 mph N/A   Unknown
4:56 PM 75.0 °F 15.1 °F 10% 29.50 in - SW 25.3 mph 33.4 mph N/A   Unknown
5:56 PM 73.9 °F 17.1 °F 12% 29.48 in - South 25.3 mph 35.7 mph N/A   Unknown
6:56 PM 70.0 °F 18.0 °F 14% 29.48 in - South 20.7 mph - N/A   Unknown
7:56 PM 63.0 °F 19.0 °F 18% 29.49 in - SSW 10.4 mph - N/A   Unknown
8:56 PM 57.9 °F 18.0 °F 21% 29.52 in - SSW 8.1 mph - N/A   Unknown
9:56 PM 57.9 °F 14.0 °F 18% 29.49 in - SW 8.1 mph - N/A   Unknown
10:56 PM 52.0 °F 15.1 °F 23% 29.48 in - SSW 8.1 mph - N/A   Unknown
11:56 PM 57.0 °F 14.0 °F 18% 29.45 in - SW 13.8 mph - N/A   Unknown